Tracking 18840 objects as of 18-November-2017
HD Live streaming from Space Station
objects crossing your sky now

FENGYUN 1C DEB

Track FENGYUN 1C DEB now!
10-day predictions


NORAD ID: 31412
Int'l Code: 1999-025BSY
Perigee: 844.4 km
Apogee: 974.4 km
Inclination: 98.6 °
Period: 103.0 minutes
Semi major axis: 7280 km
RCS: 0.0059 m2 (small)
Launch date: May 10, 1999
Source: People's Republic of China (PRC)
Launch site: Taiyaun Space Center, China (TSC)

Note: This is SATELLITE DEBRIS
aabbcc
Your satellite tracking list
Your tracking list is empty




NASA's NSSDC Master Catalog

Two Line Element Set (TLE):
1 31412U 99025BSY 17321.25328504 +.00000765 +00000-0 +55292-3 0  9993
2 31412 098.5743 059.4963 0089300 323.3299 036.1775 13.97559449197255
Source of the keplerian elements: AFSPC